Wind_Speed
35 25 7 21 33 39 45 54 57 62 62 64 70 72 77 79 85 89 93 95 90 90 86 84 79 80 73 75 73 76 79 75 75 70 77 73 76 72 71 70 68 63 63 58 56 56 54
34 27 8 13 22 29 38 48 57 58 62 60 63 70 73 76 77 82 89 93 95 95 95 95 90 89 86 82 80 84 82 88 86 83 80 79 81 79 79 77 74 70 68 63 60 60 60
32 28 18 8 15 22 29 38 49 57 59 60 59 62 70 72 77 78 84 89 90 100 94 97 95 88 91 89 89 83 87 86 87 92 88 86 87 82 78 82 83 79 74 72 67 66 66
28 24 20 10 13 17 22 28 36 47 56 59 59 60 61 66 71 78 79 87 93 93 99 99 99 97 97 94 92 96 92 91 95 93 91 89 89 92 88 88 85 88 87 79 75 77 76
27 21 16 15 8 14 20 23 28 36 44 52 56 58 60 62 66 71 76 81 87 94 94 99 101 100 101 100 101 95 101 96 94 98 97 98 94 97 98 94 93 90 90 90 87 85 88
25 22 15 10 9 8 11 20 25 29 35 41 46 51 55 58 61 65 68 72 79 85 91 96 100 103 103 105 104 107 104 103 105 105 106 108 103 104 102 102 102 99 95 97 91 94 99
24 21 18 11 9 8 7 10 16 24 31 35 38 41 45 50 54 58 61 65 68 72 80 86 91 99 101 100 106 105 106 113 110 107 109 112 108 110 111 111 111 109 106 98 99 90 94
23 20 18 16 15 13 12 13 14 17 20 24 29 35 39 42 45 49 54 59 63 66 69 72 75 80 87 94 101 105 106 112 113 114 115 116 120 119 118 117 116 113 117 111 104 107 107
24 21 20 18 15 19 19 19 19 19 20 22 23 24 27 30 34 38 42 46 51 55 59 62 65 67 71 75 81 86 91 97 103 110 115 122 123 125 122 123 125 120 119 117 117 118 114
23 19 24 20 18 16 19 24 25 26 26 25 25 25 25 26 26 29 31 34 37 40 43 46 49 52 56 59 64 68 71 76 82 88 94 100 106 111 119 124 125 124 129 129 125 129 119
30 22 22 23 20 19 18 18 20 26 29 30 30 31 31 32 33 35 36 38 39 40 41 42 42 43 47 48 50 54 54 58 63 68 74 80 82 88 97 106 115 114 121 128 137 132 128
35 33 27 21 25 25 22 21 20 21 23 25 26 26 26 27 28 32 35 36 38 40 42 44 45 47 49 52 53 56 57 60 61 67 76 79 78 79 83 85 91 98 103 111 118 122 127
38 36 31 35 24 25 28 24 23 23 23 22 22 22 23 24 25 24 24 26 28 29 32 34 36 39 42 44 46 47 50 52 53 59 65 77 75 74 75 76 79 83 89 95 104 112 104
45 40 37 37 36 32 31 32 28 25 25 26 25 24 23 22 22 23 24 25 25 27 30 33 35 38 41 44 45 46 51 52 55 59 61 68 70 67 74 69 73 72 74 81 89 102 96
50 45 43 43 41 40 34 35 36 32 29 27 27 27 25 25 25 25 25 26 27 29 31 32 34 37 39 39 40 42 43 46 49 53 55 58 64 63 63 62 63 64 65 71 77 90 91
53 54 48 45 47 47 43 38 38 40 38 32 28 27 27 26 21 21 21 22 22 23 25 29 33 34 33 34 35 35 36 41 45 48 49 52 56 51 54 53 49 52 57 61 68 80 84
63 61 57 55 53 52 52 42 44 41 42 41 36 32 29 27 27 27 26 27 26 27 28 32 34 38 39 38 32 32 31 36 40 44 47 46 47 44 42 43 44 41 45 50 57 65 71
70 68 63 60 55 57 55 52 46 44 44 39 44 41 36 36 34 33 33 32 33 32 34 34 35 37 38 40 40 35 32 33 37 38 44 45 48 42 40 38 35 37 34 38 45 54 64
72 71 70 65 57 58 57 52 48 49 46 43 42 43 46 40 38 40 40 39 39 39 39 38 36 34 37 40 44 42 36 33 34 35 39 42 46 50 43 35 32 30 32 31 34 42 51
77 76 68 68 63 58 58 54 52 52 51 47 44 45 45 43 42 42 40 39 40 39 38 37 35 36 35 39 42 45 44 37 36 35 38 42 45 47 50 42 35 31 32 25 28 33 41
79 72 70 73 69 66 60 58 56 53 52 51 47 45 47 46 44 41 41 41 41 41 41 41 38 37 38 39 42 46 42 41 38 36 35 41 44 47 49 48 44 40 35 30 27 24 31
80 76 69 66 66 70 67 60 57 55 52 53 53 50 45 48 46 44 43 43 42 43 44 42 43 40 38 37 43 49 45 41 41 39 36 36 41 47 47 48 45 45 40 37 27 24 27
85 82 77 72 68 66 64 69 65 61 57 53 52 51 49 47 48 45 45 44 42 43 46 47 44 41 40 42 40 42 45 42 39 41 38 39 41 43 45 51 48 50 45 37 36 35 26
91 85 81 77 70 70 70 68 65 63 60 57 52 51 50 49 48 46 45 44 46 47 47 49 46 42 46 43 41 46 46 45 40 40 39 38 39 42 45 48 51 50 50 45 36 33 33
92 91 86 80 76 72 74 72 71 69 63 61 57 55 55 53 52 49 47 47 47 47 49 50 49 48 48 47 44 46 44 47 44 42 40 38 38 43 45 47 54 55 52 49 40 34 33
95 92 91 85 80 75 74 75 74 71 68 66 63 61 59 56 54 48 51 50 50 51 52 52 52 49 48 47 47 46 48 50 50 45 46 43 40 46 48 48 49 54 57 53 48 43 34
97 96 92 89 85 79 75 73 71 72 73 67 63 62 61 59 56 53 52 54 57 57 57 57 54 51 49 51 52 52 52 52 52 50 48 44 38 46 50 51 52 55 57 57 55 47 38
98 99 95 92 87 81 77 74 71 70 72 75 73 71 67 64 59 59 59 60 58 60 63 63 56 56 49 52 56 53 53 49 48 50 48 49 42 49 51 55 53 58 61 60 59 55 45
100 99 98 97 93 87 82 77 74 69 67 71 72 69 67 69 63 66 62 62 60 61 65 62 59 57 52 53 52 53 51 47 44 52 50 47 43 50 54 58 60 63 64 64 61 58 53
Wind_Direction
354 352 259 215 214 215 214 215 217 219 222 224 224 223 225 227 228 230 227 229 228 232 232 230 230 232 232 236 241 240 236 236 237 238 238 241 238 239 239 236 235 223 226 227 231 233 242
356 358 335 222 215 216 218 217 217 219 221 224 226 226 227 228 231 230 231 230 232 233 231 234 234 234 233 238 241 237 241 238 239 241 241 241 242 244 241 240 240 234 228 228 232 238 236
351 354 3 253 226 221 223 220 219 221 223 225 227 229 229 231 231 232 232 232 236 236 237 235 235 237 239 240 241 240 240 243 239 243 245 241 241 238 242 242 239 242 231 233 230 240 242
341 349 352 354 239 231 228 227 223 223 225 228 230 231 232 233 234 233 234 234 235 236 238 236 242 243 240 241 243 243 243 242 240 241 245 242 243 240 242 240 244 239 239 238 238 238 241
335 336 348 347 334 241 234 231 229 227 227 230 232 233 234 235 236 236 237 237 238 239 239 239 243 247 245 242 241 242 246 245 246 246 245 246 244 241 243 240 242 241 241 238 242 244 242
320 327 325 342 331 306 245 236 233 231 232 234 235 237 238 238 238 240 241 241 241 242 242 242 244 246 246 245 244 243 247 248 247 246 248 247 249 244 242 241 239 243 243 246 246 246 243
304 313 315 304 301 289 266 243 234 234 235 236 237 239 240 241 241 242 243 243 245 245 246 246 247 248 249 249 248 248 250 250 251 250 252 246 248 249 250 249 244 241 243 242 240 240 246
304 293 302 296 280 267 261 243 228 227 227 230 235 237 238 240 241 242 244 245 245 246 247 249 250 250 250 251 251 251 253 252 252 254 252 251 252 254 252 251 248 246 241 241 240 242 242
313 274 288 289 284 271 261 256 252 243 236 232 230 231 234 237 240 243 245 246 247 248 249 250 251 252 252 253 253 253 254 255 255 255 255 255 256 255 254 253 249 249 246 241 240 244 242
286 295 273 273 278 274 269 258 254 252 250 249 250 249 249 249 250 251 251 249 249 251 253 253 253 254 255 256 257 258 257 259 259 257 257 256 256 256 256 255 252 251 250 247 245 244 244
277 284 282 264 263 272 268 265 261 255 253 252 250 249 251 252 252 252 253 254 255 256 258 261 263 265 266 265 265 268 267 266 265 267 264 262 260 260 258 255 255 253 252 251 249 248 245
271 275 270 282 269 260 264 268 264 263 262 258 254 250 251 254 255 253 252 253 255 257 259 259 261 263 264 265 267 267 268 268 269 270 271 270 268 267 265 262 258 257 254 252 251 249 246
267 266 259 262 278 270 257 257 258 259 258 257 250 250 251 251 249 249 249 251 254 259 260 259 261 264 266 267 267 270 271 271 271 271 275 279 276 275 271 268 263 261 253 250 250 249 248
261 260 258 249 266 286 258 251 247 251 254 250 251 252 251 248 249 254 256 260 265 268 271 273 275 277 278 276 276 277 278 278 277 278 280 283 285 284 281 273 271 263 256 252 249 249 245
253 254 255 251 265 269 273 256 244 247 244 249 251 249 247 246 248 256 263 267 270 274 278 282 283 282 281 281 283 281 282 281 283 284 286 287 290 290 284 280 276 270 262 253 246 245 242
240 245 249 250 258 260 269 264 253 247 245 248 247 248 248 245 247 256 263 267 273 281 289 296 301 300 302 291 286 288 288 287 290 293 295 297 297 296 292 286 279 270 263 256 249 246 240
242 238 245 248 255 258 260 263 248 251 247 245 245 245 242 243 252 259 265 267 273 279 288 294 301 305 308 309 310 307 301 298 299 302 303 308 309 308 303 296 288 278 272 263 251 243 241
243 242 242 247 246 250 254 254 251 249 246 253 249 245 244 244 250 254 260 265 269 276 282 291 290 302 306 312 315 315 311 308 305 311 317 323 322 322 319 308 302 291 280 269 258 252 240
238 240 241 243 240 245 248 251 252 245 247 248 251 247 243 246 256 257 259 262 266 270 279 284 287 295 302 311 311 314 315 310 305 315 321 328 328 331 327 327 311 297 291 280 265 253 247
237 239 241 242 242 238 243 248 248 245 243 246 249 249 245 247 255 255 258 267 270 268 274 278 285 288 299 309 307 309 313 313 314 314 322 328 330 334 336 335 326 316 312 299 282 263 252
235 239 239 237 239 236 237 245 246 243 243 244 241 246 252 252 251 254 262 270 273 270 274 276 282 286 297 307 308 307 314 314 315 313 318 326 330 333 336 341 342 334 319 316 304 282 268
235 236 236 236 236 237 236 234 242 242 242 244 243 247 250 252 251 257 264 270 271 274 277 278 284 288 299 304 306 311 309 315 316 317 316 324 327 331 335 338 349 340 334 320 309 298 280
233 233 236 236 238 237 237 232 235 237 244 246 245 244 250 254 252 254 260 263 266 273 277 280 284 291 301 304 303 308 307 312 315 317 318 322 326 328 333 336 343 343 341 334 326 311 293
231 230 234 236 236 234 233 233 237 240 238 240 243 245 248 253 252 254 256 259 263 267 270 275 282 290 298 303 300 305 305 307 309 313 313 317 322 325 329 334 337 340 340 339 332 316 308
227 231 231 232 233 233 232 234 237 237 240 240 242 246 247 250 252 257 253 258 262 266 267 272 280 286 298 299 296 300 302 303 307 309 309 311 321 323 325 333 336 336 336 339 332 323 316
226 227 229 230 231 233 232 235 235 237 237 242 244 245 249 250 247 253 254 256 261 262 268 269 276 284 293 296 293 295 300 303 304 309 310 313 318 318 321 330 333 333 335 335 334 327 321
223 225 226 230 230 233 231 233 235 237 235 237 240 241 245 247 246 249 252 256 257 262 267 271 274 283 288 290 291 290 292 296 297 301 303 307 313 312 318 324 330 330 332 332 331 328 320
220 223 222 226 227 229 232 232 233 235 237 238 239 243 246 248 247 248 250 252 256 260 265 271 275 280 281 284 288 290 292 293 297 297 300 306 315 310 318 319 326 327 330 331 330 327 322
217 221 220 222 225 225 227 230 233 233 235 238 238 240 245 249 249 252 254 257 261 264 266 272 276 281 278 282 285 285 289 296 295 296 299 303 312 308 316 319 324 325 327 328 328 327 324
Height
10592 10586 10584 10588 10593 10599 10605 10613 10621 10630 10639 10647 10654 10662 10670 10677 10686 10693 10701 10709 10717 10724 10730 10735 10742 10749 10755 10761 10766 10769 10774 10777 10783 10789 10794 10798 10802 10808 10812 10817 10822 10837 10835 10841 10838 10840 10844
10595 10590 10587 10589 10592 10597 10602 10608 10615 10623 10631 10639 10646 10652 10659 10666 10673 10681 10689 10695 10703 10710 10717 10723 10729 10735 10743 10749 10749 10754 10761 10766 10772 10774 10780 10785 10791 10796 10801 10805 10808 10820 10827 10830 10833 10831 10835
10597 10593 10590 10590 10592 10595 10599 10604 10610 10617 10624 10632 10638 10644 10651 10657 10663 10669 10675 10681 10689 10696 10702 10709 10714 10721 10728 10734 10736 10743 10746 10751 10758 10762 10764 10771 10775 10783 10790 10790 10797 10803 10815 10821 10827 10824 10823
10599 10595 10592 10591 10592 10594 10597 10601 10606 10612 10618 10624 10630 10636 10642 10648 10653 10658 10663 10669 10674 10679 10686 10692 10697 10704 10712 10720 10722 10723 10730 10736 10740 10747 10749 10754 10761 10766 10772 10776 10780 10786 10795 10808 10809 10807 10807
10599 10596 10593 10591 10591 10593 10595 10597 10601 10605 10611 10616 10621 10627 10633 10637 10642 10648 10653 10658 10662 10668 10673 10678 10684 10690 10697 10702 10708 10709 10713 10719 10724 10729 10733 10737 10741 10744 10750 10757 10762 10768 10780 10786 10791 10790 10787
10598 10596 10593 10591 10591 10591 10592 10594 10597 10600 10604 10608 10613 10618 10623 10628 10633 10638 10643 10647 10651 10655 10659 10663 10668 10674 10681 10686 10691 10694 10698 10699 10705 10709 10713 10718 10719 10722 10728 10734 10745 10748 10756 10767 10778 10773 10770
10594 10593 10591 10590 10590 10591 10591 10591 10592 10595 10598 10602 10605 10610 10614 10618 10622 10627 10632 10635 10638 10642 10645 10650 10654 10658 10662 10666 10671 10677 10680 10682 10682 10687 10689 10693 10694 10700 10705 10712 10723 10730 10735 10747 10754 10750 10749
10589 10589 10588 10587 10587 10588 10589 10590 10590 10591 10593 10595 10597 10601 10605 10609 10612 10615 10619 10622 10626 10628 10632 10635 10639 10643 10646 10649 10653 10658 10659 10661 10662 10663 10666 10665 10672 10676 10682 10683 10691 10701 10709 10725 10727 10723 10729
10585 10583 10583 10583 10582 10583 10584 10586 10586 10587 10589 10590 10592 10594 10597 10600 10603 10605 10608 10610 10612 10615 10618 10622 10625 10629 10632 10633 10635 10639 10640 10641 10642 10643 10644 10643 10643 10646 10650 10654 10660 10670 10678 10694 10700 10690 10705
10578 10578 10577 10577 10578 10577 10578 10579 10580 10581 10583 10585 10587 10589 10591 10594 10596 10597 10599 10600 10602 10604 10606 10609 10612 10616 10617 10619 10620 10620 10626 10625 10622 10620 10619 10614 10615 10620 10623 10624 10627 10647 10646 10654 10663 10660 10696
10568 10569 10571 10570 10571 10572 10573 10573 10573 10574 10576 10578 10580 10582 10585 10587 10589 10590 10591 10592 10594 10595 10597 10598 10602 10605 10605 10606 10607 10605 10609 10607 10604 10598 10594 10587 10594 10593 10596 10597 10591 10609 10607 10615 10621 10631 10658
10559 10560 10562 10563 10563 10565 10566 10567 10566 10567 10568 10569 10571 10574 10576 10578 10579 10580 10581 10583 10584 10586 10587 10589 10590 10592 10592 10593 10594 10593 10592 10590 10589 10581 10568 10565 10571 10573 10568 10568 10565 10570 10578 10582 10582 10591 10601
10547 10549 10551 10552 10555 10557 10558 10559 10560 10560 10561 10563 10564 10567 10569 10570 10571 10572 10574 10574 10576 10577 10578 10579 10580 10581 10580 10580 10580 10579 10575 10574 10574 10566 10557 10536 10546 10549 10547 10544 10537 10539 10543 10548 10545 10544 10590
10534 10536 10539 10541 10542 10546 10549 10551 10552 10553 10554 10555 10557 10559 10561 10563 10564 10564 10566 10567 10568 10568 10569 10569 10571 10570 10569 10567 10567 10566 10559 10559 10556 10550 10547 10530 10526 10528 10513 10514 10509 10510 10513 10515 10519 10514 10552
10519 10522 10526 10528 10531 10533 10537 10540 10542 10544 10545 10547 10549 10550 10552 10553 10555 10556 10558 10559 10560 10560 10560 10561 10560 10559 10558 10556 10553 10552 10545 10544 10539 10534 10529 10520 10508 10502 10497 10492 10487 10484 10484 10482 10489 10488 10514
10502 10508 10511 10515 10518 10521 10524 10528 10531 10534 10536 10538 10540 10541 10543 10545 10547 10549 10550 10551 10552 10552 10551 10550 10549 10547 10545 10544 10542 10540 10534 10530 10526 10519 10513 10503 10492 10485 10474 10471 10469 10459 10458 10458 10462 10463 10482
10483 10489 10495 10500 10504 10508 10511 10515 10519 10522 10524 10528 10531 10532 10534 10536 10538 10540 10541 10542 10543 10543 10543 10541 10539 10536 10535 10533 10531 10527 10525 10519 10513 10506 10499 10490 10479 10471 10463 10455 10447 10445 10438 10436 10439 10442 10458
10462 10469 10476 10482 10487 10493 10497 10501 10506 10509 10512 10515 10519 10521 10524 10526 10529 10531 10532 10532 10533 10533 10533 10533 10530 10527 10524 10521 10519 10516 10514 10509 10503 10496 10485 10477 10465 10460 10451 10442 10437 10430 10426 10423 10424 10427 10435
10441 10448 10455 10463 10469 10476 10482 10485 10491 10496 10499 10502 10506 10508 10512 10515 10518 10520 10521 10522 10522 10522 10522 10523 10521 10519 10515 10512 10508 10504 10502 10500 10494 10488 10479 10469 10459 10446 10440 10437 10428 10421 10415 10412 10412 10412 10417
10419 10427 10436 10442 10449 10457 10465 10471 10475 10481 10484 10488 10493 10496 10499 10503 10505 10508 10510 10510 10511 10512 10512 10512 10510 10508 10506 10502 10498 10494 10491 10487 10483 10477 10470 10461 10452 10444 10432 10426 10420 10413 10406 10405 10403 10404 10404
10397 10406 10414 10424 10430 10438 10446 10455 10459 10465 10469 10474 10479 10483 10486 10490 10492 10495 10497 10498 10498 10498 10501 10500 10499 10497 10496 10491 10486 10484 10481 10477 10474 10468 10463 10454 10445 10436 10430 10421 10411 10403 10399 10398 10396 10397 10395
10373 10385 10394 10402 10410 10419 10427 10436 10443 10449 10454 10459 10464 10469 10473 10477 10479 10482 10484 10485 10486 10485 10485 10487 10487 10487 10486 10482 10475 10472 10469 10467 10461 10457 10453 10449 10441 10430 10423 10418 10411 10398 10393 10386 10389 10387 10383
10349 10362 10374 10382 10391 10399 10407 10418 10425 10432 10439 10445 10449 10454 10459 10463 10467 10469 10471 10473 10473 10472 10471 10472 10472 10472 10473 10472 10467 10463 10460 10459 10453 10446 10442 10438 10434 10426 10418 10410 10405 10397 10389 10384 10377 10373 10374
10325 10338 10351 10362 10371 10380 10389 10400 10408 10416 10422 10428 10434 10439 10444 10449 10452 10456 10458 10460 10461 10461 10460 10460 10460 10461 10460 10459 10455 10451 10448 10447 10445 10439 10434 10432 10426 10419 10411 10406 10399 10394 10385 10378 10374 10367 10364
10299 10315 10329 10340 10351 10360 10369 10380 10390 10398 10405 10412 10418 10424 10428 10433 10438 10440 10444 10445 10448 10448 10447 10447 10449 10450 10449 10448 10444 10439 10437 10435 10434 10429 10425 10423 10418 10410 10403 10398 10388 10384 10379 10373 10367 10361 10356
10276 10291 10306 10319 10330 10341 10350 10360 10371 10380 10388 10397 10402 10408 10412 10417 10422 10427 10429 10431 10432 10434 10435 10436 10437 10439 10438 10436 10433 10428 10424 10421 10419 10416 10411 10409 10407 10398 10392 10391 10388 10378 10368 10364 10358 10351 10348
10252 10268 10283 10298 10310 10321 10331 10341 10351 10361 10370 10379 10387 10390 10395 10400 10406 10411 10413 10418 10418 10421 10421 10422 10425 10427 10427 10426 10423 10419 10415 10411 10408 10403 10400 10400 10400 10388 10382 10379 10377 10369 10363 10355 10348 10343 10336
10227 10244 10260 10276 10289 10301 10312 10322 10332 10342 10351 10361 10368 10375 10380 10383 10390 10395 10398 10400 10405 10406 10406 10407 10413 10414 10416 10412 10410 10407 10403 10400 10395 10390 10389 10384 10385 10374 10372 10365 10365 10357 10352 10345 10335 10326 10322
10203 10219 10237 10253 10268 10280 10292 10303 10313 10324 10332 10341 10350 10357 10363 10367 10374 10377 10381 10384 10390 10392 10390 10395 10400 10401 10402 10399 10397 10394 10392 10389 10385 10374 10373 10375 10375 10363 10359 10350 10347 10342 10339 10332 10325 10315 10307